パンスターズ彗星

C/2019 B3 ( PanSTARRS )

English version
Home page
Updated on April 4, 2021

---------------------------------------------------------------------

・ プロフィール

発見日 2019年1月24日
発見光度 19.6等
発見者 Pan-STARRS 1 telescope (Haleakala)

・ 写真集

・ 軌道要素

Epoch 2021 Jan. 26.0 TT = JDT 2459240.5
T 2021 Jan. 20.03242 TT                                 Rudenko
q   6.8230030            (2000.0)            P               Q
z  -0.0003652      Peri.  263.91224     -0.11687155     +0.99282827
 +/-0.0000025      Node   358.42824     +0.00237987     -0.02505452
e   1.0024919      Incl.   66.53618     -0.99314419     -0.11689441
From 117 observations 2019 Jan. 24-2021 Mar. 11, mean residual 0".6.

・ 光度変化

        m1 = 5.5 + 5 logΔ + 10.0 log r

---------------------------------------------------------------------

軌道要素はM.P.E.C. 2021-F20に掲載されたものです。
光度グラフはComet for Windowsで作成したものです。

---------------------------------------------------------------------

Copyright(C) Seiichi Yoshida (comet@aerith.net). All rights reserved.